Time,TemperatureF,DewpointF,PressureIn,WindDirection,WindDirectionDegrees,WindSpeedMPH,WindSpeedGustMPH,Humidity,HourlyPrecipIn,Conditions,Clouds,dailyrainin,SoftwareType,DateUTC
2013-07-08 00:11:00,77.2,71.0,29.88,SW,234,5.0,-999.0,81,-99.99,,,0.00,weatherlink.com 1.10,2013-07-08 05:11:00,
2013-07-08 00:26:00,76.9,71.0,29.88,SW,223,4.0,-999.0,81,-99.99,,,0.00,weatherlink.com 1.10,2013-07-08 05:26:00,
2013-07-08 00:41:00,76.9,71.0,29.87,SW,227,3.0,-999.0,81,-99.99,,,0.00,weatherlink.com 1.10,2013-07-08 05:41:00,
2013-07-08 00:56:00,76.9,70.0,29.87,SW,216,6.0,-999.0,80,-99.99,,,0.00,weatherlink.com 1.10,2013-07-08 05:56:00,
2013-07-08 01:11:00,76.6,70.0,29.86,SW,232,5.0,-999.0,80,-99.99,,,0.00,weatherlink.com 1.10,2013-07-08 06:11:00,
2013-07-08 01:26:00,76.5,70.0,29.86,SW,214,4.0,-999.0,81,-99.99,,,0.00,weatherlink.com 1.10,2013-07-08 06:26:00,
2013-07-08 01:42:00,76.4,70.0,29.86,SW,221,3.0,-999.0,81,-99.99,,,0.00,weatherlink.com 1.10,2013-07-08 06:42:00,
2013-07-08 01:57:00,76.0,70.0,29.86,SW,225,9.0,-999.0,82,-99.99,,,0.00,weatherlink.com 1.10,2013-07-08 06:57:00,
2013-07-08 02:12:00,76.0,70.0,29.84,South,182,0.0,-999.0,81,-99.99,,,0.00,weatherlink.com 1.10,2013-07-08 07:12:00,
2013-07-08 02:27:00,75.7,70.0,29.84,SW,236,8.0,-999.0,82,-99.99,,,0.00,weatherlink.com 1.10,2013-07-08 07:27:00,
2013-07-08 02:42:00,75.5,70.0,29.84,SW,220,5.0,-999.0,83,-99.99,,,0.00,weatherlink.com 1.10,2013-07-08 07:42:00,
2013-07-08 02:57:00,75.6,70.0,29.84,SSW,207,5.0,-999.0,82,-99.99,,,0.00,weatherlink.com 1.10,2013-07-08 07:57:00,
2013-07-08 03:12:00,75.7,70.0,29.84,SW,231,6.0,-999.0,82,-99.99,,,0.00,weatherlink.com 1.10,2013-07-08 08:12:00,
2013-07-08 03:27:00,75.5,70.0,29.83,SSW,213,3.0,-999.0,82,-99.99,,,0.00,weatherlink.com 1.10,2013-07-08 08:27:00,
2013-07-08 03:42:00,75.0,70.0,29.83,SW,219,3.0,-999.0,83,-99.99,,,0.00,weatherlink.com 1.10,2013-07-08 08:42:00,
2013-07-08 03:57:00,75.0,70.0,29.83,SW,232,0.0,-999.0,83,-99.99,,,0.00,weatherlink.com 1.10,2013-07-08 08:57:00,
2013-07-08 04:12:00,75.0,70.0,29.83,West,259,1.0,-999.0,83,-99.99,,,0.00,weatherlink.com 1.10,2013-07-08 09:12:00,
2013-07-08 04:27:00,74.9,69.0,29.83,WSW,254,0.0,-999.0,83,-99.99,,,0.00,weatherlink.com 1.10,2013-07-08 09:27:00,
2013-07-08 04:42:00,75.1,70.0,29.83,WSW,247,1.0,-999.0,83,-99.99,,,0.00,weatherlink.com 1.10,2013-07-08 09:42:00,
2013-07-08 04:57:00,75.4,70.0,29.84,WSW,257,8.0,-999.0,83,-99.99,,,0.00,weatherlink.com 1.10,2013-07-08 09:57:00,
2013-07-08 05:12:00,73.7,70.0,29.85,West,260,6.0,-999.0,87,-99.99,,,0.01,weatherlink.com 1.10,2013-07-08 10:12:00,
2013-07-08 05:27:00,72.0,69.0,29.86,WSW,257,8.0,-999.0,91,-99.99,,,0.02,weatherlink.com 1.10,2013-07-08 10:27:00,
2013-07-08 05:42:00,70.9,68.0,29.86,WSW,238,11.0,-999.0,91,-99.99,,,0.06,weatherlink.com 1.10,2013-07-08 10:42:00,
2013-07-08 05:57:00,70.6,68.0,29.86,West,265,11.0,-999.0,92,-99.99,,,0.08,weatherlink.com 1.10,2013-07-08 10:57:00,
2013-07-08 06:12:00,69.6,68.0,29.86,West,259,6.0,-999.0,93,-99.99,,,0.08,weatherlink.com 1.10,2013-07-08 11:12:00,
2013-07-08 06:27:00,69.6,68.0,29.87,WSW,257,7.0,-999.0,94,-99.99,,,0.08,weatherlink.com 1.10,2013-07-08 11:27:00,
2013-07-08 06:42:00,69.6,68.0,29.87,West,259,9.0,-999.0,95,-99.99,,,0.08,weatherlink.com 1.10,2013-07-08 11:42:00,
2013-07-08 06:57:00,69.6,68.0,29.87,WSW,242,1.0,-999.0,95,-99.99,,,0.08,weatherlink.com 1.10,2013-07-08 11:57:00,
2013-07-08 07:12:00,69.5,68.0,29.87,SW,222,0.0,-999.0,95,-99.99,,,0.08,weatherlink.com 1.10,2013-07-08 12:12:00,
2013-07-08 07:27:00,69.6,68.0,29.88,NE,40,0.0,-999.0,95,-99.99,,,0.08,weatherlink.com 1.10,2013-07-08 12:27:00,
2013-07-08 07:42:00,69.6,68.0,29.87,SSW,213,0.0,-999.0,95,-99.99,,,0.08,weatherlink.com 1.10,2013-07-08 12:42:00,
2013-07-08 07:57:00,69.6,68.0,29.87,SSW,192,5.0,-999.0,95,-99.99,,,0.08,weatherlink.com 1.10,2013-07-08 12:57:00,
2013-07-08 08:12:00,69.7,68.0,29.88,SSW,205,0.0,-999.0,95,-99.99,,,0.08,weatherlink.com 1.10,2013-07-08 13:12:00,
2013-07-08 08:27:00,70.1,69.0,29.89,SSW,213,3.0,-999.0,95,-99.99,,,0.08,weatherlink.com 1.10,2013-07-08 13:27:00,
2013-07-08 08:42:00,70.6,69.0,29.89,SSW,206,4.0,-999.0,95,-99.99,,,0.08,weatherlink.com 1.10,2013-07-08 13:42:00,
2013-07-08 08:57:00,70.8,69.0,29.89,SW,223,0.0,-999.0,95,-99.99,,,0.08,weatherlink.com 1.10,2013-07-08 13:57:00,
2013-07-08 09:12:00,70.8,69.0,29.90,SW,218,0.0,-999.0,95,-99.99,,,0.08,weatherlink.com 1.10,2013-07-08 14:12:00,
2013-07-08 09:27:00,71.3,70.0,29.89,SW,218,0.0,-999.0,96,-99.99,,,0.08,weatherlink.com 1.10,2013-07-08 14:27:00,
2013-07-08 09:42:00,72.3,71.0,29.89,SW,217,1.0,-999.0,96,-99.99,,,0.08,weatherlink.com 1.10,2013-07-08 14:42:00,
2013-07-08 09:57:00,73.0,71.0,29.90,WSW,246,4.0,-999.0,94,-99.99,,,0.08,weatherlink.com 1.10,2013-07-08 14:57:00,
2013-07-08 10:12:00,73.1,71.0,29.89,WSW,252,2.0,-999.0,93,-99.99,,,0.08,weatherlink.com 1.10,2013-07-08 15:12:00,
2013-07-08 10:27:00,73.8,71.0,29.90,WSW,253,5.0,-999.0,92,-99.99,,,0.08,weatherlink.com 1.10,2013-07-08 15:27:00,
2013-07-08 10:42:00,74.8,72.0,29.89,WSW,254,5.0,-999.0,91,-99.99,,,0.08,weatherlink.com 1.10,2013-07-08 15:42:00,
2013-07-08 10:57:00,75.6,72.0,29.89,WSW,244,4.0,-999.0,89,-99.99,,,0.08,weatherlink.com 1.10,2013-07-08 15:57:00,
2013-07-08 11:12:00,76.8,73.0,29.89,SW,230,7.0,-999.0,88,-99.99,,,0.08,weatherlink.com 1.10,2013-07-08 16:12:00,
2013-07-08 11:27:00,77.3,73.0,29.89,West,277,0.0,-999.0,86,-99.99,,,0.08,weatherlink.com 1.10,2013-07-08 16:27:00,
2013-07-08 11:42:00,77.6,73.0,29.90,West,277,1.0,-999.0,86,-99.99,,,0.08,weatherlink.com 1.10,2013-07-08 16:42:00,
2013-07-08 12:13:00,81.6,75.0,29.88,NNW,328,0.0,-999.0,79,-99.99,,,0.08,weatherlink.com 1.10,2013-07-08 17:13:00,
2013-07-08 12:28:00,83.2,74.0,29.88,North,350,0.0,-999.0,74,-99.99,,,0.08,weatherlink.com 1.10,2013-07-08 17:28:00,
2013-07-08 12:43:00,84.6,75.0,29.88,North,355,0.0,-999.0,73,-99.99,,,0.08,weatherlink.com 1.10,2013-07-08 17:43:00,
2013-07-08 12:58:00,85.4,75.0,29.88,SW,236,2.0,-999.0,71,-99.99,,,0.08,weatherlink.com 1.10,2013-07-08 17:58:00,
2013-07-08 13:58:00,86.3,75.0,29.88,NNW,329,0.0,-999.0,69,-99.99,,,0.08,weatherlink.com 1.10,2013-07-08 18:58:00,
2013-07-08 14:28:00,87.6,74.0,29.88,NNW,327,0.0,-999.0,65,-99.99,,,0.08,weatherlink.com 1.10,2013-07-08 19:28:00,
2013-07-08 14:58:00,89.3,75.0,29.88,WSW,250,0.0,-999.0,62,-99.99,,,0.08,weatherlink.com 1.10,2013-07-08 19:58:00,
2013-07-08 15:13:00,88.2,74.0,29.89,NW,313,0.0,-999.0,62,-99.99,,,0.08,weatherlink.com 1.10,2013-07-08 20:13:00,
2013-07-08 15:28:00,88.3,73.0,29.88,NNW,335,3.0,-999.0,61,-99.99,,,0.08,weatherlink.com 1.10,2013-07-08 20:28:00,
2013-07-08 15:43:00,88.0,74.0,29.88,North,350,0.0,-999.0,63,-99.99,,,0.08,weatherlink.com 1.10,2013-07-08 20:43:00,
2013-07-08 15:58:00,87.9,74.0,29.88,NW,321,3.0,-999.0,64,-99.99,,,0.08,weatherlink.com 1.10,2013-07-08 20:58:00,
2013-07-08 16:28:00,85.8,75.0,29.89,ENE,63,2.0,-999.0,69,-99.99,,,0.08,weatherlink.com 1.10,2013-07-08 21:28:00,
2013-07-08 16:43:00,86.0,74.0,29.89,ENE,67,0.0,-999.0,67,-99.99,,,0.08,weatherlink.com 1.10,2013-07-08 21:43:00,
2013-07-08 17:13:00,86.1,74.0,29.89,NE,42,3.0,-999.0,68,-99.99,,,0.08,weatherlink.com 1.10,2013-07-08 22:13:00,
2013-07-08 17:58:00,84.3,72.0,29.89,ENE,59,0.0,-999.0,67,-99.99,,,0.08,weatherlink.com 1.10,2013-07-08 22:58:00,
2013-07-08 18:13:00,84.7,72.0,29.89,NE,55,0.0,-999.0,66,-99.99,,,0.08,weatherlink.com 1.10,2013-07-08 23:13:00,
2013-07-08 18:28:00,84.7,72.0,29.90,ENE,63,0.0,-999.0,65,-99.99,,,0.08,weatherlink.com 1.10,2013-07-08 23:28:00,
2013-07-08 18:43:00,84.2,71.0,29.90,ENE,64,1.0,-999.0,65,-99.99,,,0.08,weatherlink.com 1.10,2013-07-08 23:43:00,
2013-07-08 19:28:00,82.9,72.0,29.91,East,84,0.0,-999.0,70,-99.99,,,0.08,weatherlink.com 1.10,2013-07-09 00:28:00,
2013-07-08 19:43:00,82.1,73.0,29.91,East,82,3.0,-999.0,73,-99.99,,,0.08,weatherlink.com 1.10,2013-07-09 00:43:00,
2013-07-08 20:28:00,79.3,72.0,29.92,East,83,0.0,-999.0,78,-99.99,,,0.08,weatherlink.com 1.10,2013-07-09 01:28:00,
2013-07-08 20:43:00,78.3,72.0,29.93,ESE,107,0.0,-999.0,80,-99.99,,,0.08,weatherlink.com 1.10,2013-07-09 01:43:00,
2013-07-08 21:13:00,77.0,72.0,29.94,SE,134,0.0,-999.0,83,-99.99,,,0.08,weatherlink.com 1.10,2013-07-09 02:13:00,
2013-07-08 21:28:00,76.6,71.0,29.94,SE,129,0.0,-999.0,83,-99.99,,,0.08,weatherlink.com 1.10,2013-07-09 02:28:00,
2013-07-08 21:43:00,76.2,71.0,29.94,ESE,121,0.0,-999.0,83,-99.99,,,0.08,weatherlink.com 1.10,2013-07-09 02:43:00,
2013-07-08 21:58:00,75.8,71.0,29.95,ESE,119,0.0,-999.0,84,-99.99,,,0.08,weatherlink.com 1.10,2013-07-09 02:58:00,
2013-07-08 22:13:00,75.4,70.0,29.95,ESE,118,0.0,-999.0,84,-99.99,,,0.08,weatherlink.com 1.10,2013-07-09 03:13:00,
2013-07-08 22:28:00,75.2,71.0,29.95,SE,125,4.0,-999.0,85,-99.99,,,0.08,weatherlink.com 1.10,2013-07-09 03:28:00,
2013-07-08 22:43:00,74.7,70.0,29.94,ESE,113,0.0,-999.0,86,-99.99,,,0.08,weatherlink.com 1.10,2013-07-09 03:43:00,
2013-07-08 22:58:00,74.4,70.0,29.95,ESE,116,0.0,-999.0,87,-99.99,,,0.08,weatherlink.com 1.10,2013-07-09 03:58:00,
2013-07-08 23:13:00,74.0,70.0,29.94,ESE,107,0.0,-999.0,88,-99.99,,,0.08,weatherlink.com 1.10,2013-07-09 04:13:00,
2013-07-08 23:28:00,73.5,70.0,29.94,ESE,107,0.0,-999.0,89,-99.99,,,0.08,weatherlink.com 1.10,2013-07-09 04:28:00,
2013-07-08 23:43:00,72.9,70.0,29.95,ESE,107,0.0,-999.0,90,-99.99,,,0.08,weatherlink.com 1.10,2013-07-09 04:43:00,
2013-07-08 23:58:00,72.3,70.0,29.96,ESE,107,0.0,-999.0,91,-99.99,,,0.08,weatherlink.com 1.10,2013-07-09 04:58:00,